Tracking 30696 objects as of 15-Jun-2025
HD Live streaming from Space Station
objects crossing your sky now

DELTA 1 DEB

Track DELTA 1 DEB now!
10-day predictions


NORAD ID: 21289
Int'l Code: 1975-052AA
Perigee: 1,080.4 km
Apogee: 1,458.5 km
Inclination: 99.9 °
Period: 110.8 minutes
Semi major axis: 7640 km
RCS: 0.0171 m2 (small)
Launch date: June 12, 1975
Source: United States (US)
Launch site: AIR FORCE WESTERN TEST RANGE (AFWTR)

Note: This is SATELLITE DEBRIS
Your satellite tracking list
Your tracking list is empty




NASA's NSSDC Master Catalog

Two Line Element Set (TLE):
1 21289U 75052AA  25166.52254859  .00000599  00000-0  18325-2 0  9995
2 21289  99.8765 180.9732 0247436 118.2107  32.6950 12.99949792616902
Source of the keplerian elements: AFSPC